Station Historical Data
Daily Summary for May 14, 2012 Units:  English    Metric   Both
« Previous Day
Next Day »
Daily Weekly Monthly Yearly Custom
  High: Low: Average:
Temperature: 72.5 °F 60.4 °F 65 °F
Dew Point: 65.9 °F 58.7 °F 61.8 °F
Humidity: 94% 76% 89%
Wind Speed: 12.0mph 0.0mph 3.7mph
Wind Gust: 16.0mph - -
Wind- - WNW
Pressure: 29.98 in 29.90 in -
Precipitation: 0.01 in    
Historical Graphs
 
 
Tabular Data for May 14, 2012
Time Temperature Dew Point Pressure Wind Wind Speed Wind Gust Humidity Rainfall Rate (Hourly) Conditions
00:00 61.6 °F 59.9 °F 29.95 in NW 2.0 mph 2.0 mph 94% 0.00 in
00:01 61.6 °F 59.9 °F 29.95 in NW 2.0 mph 2.0 mph 94% 0.00 in
00:06 61.6 °F 59.9 °F 29.95 in WNW 2.0 mph 3.0 mph 94% 0.00 in
00:11 61.7 °F 60.0 °F 29.95 in WNW 2.0 mph 3.0 mph 94% 0.00 in
00:16 61.7 °F 60.0 °F 29.95 in WNW 3.0 mph 4.0 mph 94% 0.00 in
00:21 61.7 °F 60.0 °F 29.95 in WNW 3.0 mph 4.0 mph 94% 0.00 in
00:27 61.7 °F 60.0 °F 29.95 in WNW 4.0 mph 5.0 mph 94% 0.00 in
00:32 61.7 °F 60.0 °F 29.95 in NW 4.0 mph 5.0 mph 94% 0.00 in
00:37 61.8 °F 60.1 °F 29.95 in NW 1.0 mph 4.0 mph 94% 0.00 in
00:42 61.8 °F 60.1 °F 29.95 in North 3.0 mph 4.0 mph 94% 0.00 in
00:47 61.8 °F 60.1 °F 29.95 in NNW 2.0 mph 6.0 mph 94% 0.00 in
00:52 61.9 °F 60.2 °F 29.95 in NW 2.0 mph 4.0 mph 94% 0.00 in
00:58 61.9 °F 60.2 °F 29.95 in NNW 2.0 mph 5.0 mph 94% 0.00 in
01:03 61.9 °F 60.2 °F 29.95 in NNW 3.0 mph 5.0 mph 94% 0.00 in
01:08 61.9 °F 60.2 °F 29.95 in NNW 5.0 mph 5.0 mph 94% 0.00 in
01:13 61.9 °F 60.2 °F 29.95 in WNW 3.0 mph 4.0 mph 94% 0.00 in
01:18 61.9 °F 60.2 °F 29.94 in NNW 3.0 mph 5.0 mph 94% 0.00 in
01:23 61.8 °F 60.1 °F 29.94 in NW 2.0 mph 5.0 mph 94% 0.00 in
01:28 61.8 °F 60.1 °F 29.94 in NW 5.0 mph 8.0 mph 94% 0.00 in
01:33 61.8 °F 60.1 °F 29.94 in NW 4.0 mph 6.0 mph 94% 0.00 in
01:38 61.7 °F 60.0 °F 29.94 in NW 4.0 mph 7.0 mph 94% 0.00 in
01:43 61.7 °F 59.7 °F 29.94 in NW 3.0 mph 9.0 mph 93% 0.00 in
01:49 61.6 °F 59.6 °F 29.93 in NW 5.0 mph 6.0 mph 93% 0.00 in
01:54 61.6 °F 59.6 °F 29.93 in NW 2.0 mph 5.0 mph 93% 0.00 in
01:59 61.6 °F 59.6 °F 29.93 in NW 4.0 mph 5.0 mph 93% 0.00 in
02:04 61.6 °F 59.9 °F 29.93 in NW 1.0 mph 2.0 mph 94% 0.00 in
02:09 61.6 °F 59.9 °F 29.93 in NNW 2.0 mph 2.0 mph 94% 0.00 in
02:10 61.6 °F 59.9 °F 29.93 in West 2.0 mph 3.0 mph 94% 0.00 in
02:15 61.5 °F 59.8 °F 29.93 in NW 4.0 mph 5.0 mph 94% 0.00 in
02:20 61.6 °F 59.9 °F 29.93 in NW 2.0 mph 5.0 mph 94% 0.00 in
02:25 61.5 °F 59.8 °F 29.92 in WNW 3.0 mph 5.0 mph 94% 0.00 in
02:31 61.5 °F 59.8 °F 29.92 in WNW 3.0 mph 5.0 mph 94% 0.00 in
02:36 61.4 °F 59.7 °F 29.92 in WNW 2.0 mph 4.0 mph 94% 0.00 in
02:42 61.4 °F 59.7 °F 29.92 in NNW 5.0 mph 6.0 mph 94% 0.00 in
02:47 61.4 °F 59.7 °F 29.92 in NW 3.0 mph 5.0 mph 94% 0.00 in
02:52 61.3 °F 59.6 °F 29.92 in NW 5.0 mph 6.0 mph 94% 0.00 in
02:57 61.3 °F 59.6 °F 29.91 in NW 4.0 mph 4.0 mph 94% 0.00 in
03:02 61.3 °F 59.6 °F 29.91 in WNW 2.0 mph 4.0 mph 94% 0.00 in
03:07 61.3 °F 59.6 °F 29.91 in NW 3.0 mph 4.0 mph 94% 0.00 in
03:13 61.3 °F 59.6 °F 29.91 in NNW 2.0 mph 3.0 mph 94% 0.00 in
03:18 61.2 °F 59.5 °F 29.91 in NW 2.0 mph 5.0 mph 94% 0.00 in
03:23 61.2 °F 59.5 °F 29.91 in WNW 2.0 mph 4.0 mph 94% 0.00 in
03:28 61.2 °F 59.5 °F 29.90 in WNW 2.0 mph 4.0 mph 94% 0.00 in
03:33 61.2 °F 59.5 °F 29.90 in WNW 2.0 mph 2.0 mph 94% 0.00 in
03:38 61.1 °F 59.4 °F 29.90 in WNW 2.0 mph 4.0 mph 94% 0.00 in
03:43 61.1 °F 59.4 °F 29.90 in WNW 3.0 mph 4.0 mph 94% 0.00 in
03:48 61.0 °F 59.3 °F 29.90 in WNW 3.0 mph 4.0 mph 94% 0.00 in
03:53 61.0 °F 59.3 °F 29.90 in NW 2.0 mph 5.0 mph 94% 0.00 in
03:58 61.0 °F 59.3 °F 29.90 in NW 5.0 mph 5.0 mph 94% 0.00 in
04:03 60.9 °F 59.2 °F 29.90 in WNW 3.0 mph 5.0 mph 94% 0.00 in
04:08 60.9 °F 59.2 °F 29.90 in NW 2.0 mph 5.0 mph 94% 0.00 in
04:13 60.8 °F 59.1 °F 29.90 in NNW 3.0 mph 5.0 mph 94% 0.00 in
04:18 60.8 °F 59.1 °F 29.90 in NW 4.0 mph 4.0 mph 94% 0.00 in
04:24 60.8 °F 59.1 °F 29.91 in NW 2.0 mph 4.0 mph 94% 0.00 in
04:29 60.7 °F 59.0 °F 29.91 in WNW 1.0 mph 4.0 mph 94% 0.00 in
04:34 60.7 °F 59.0 °F 29.91 in WNW 2.0 mph 3.0 mph 94% 0.00 in
04:39 60.7 °F 59.0 °F 29.91 in NW 3.0 mph 3.0 mph 94% 0.00 in
04:44 60.6 °F 58.9 °F 29.91 in WNW 3.0 mph 3.0 mph 94% 0.00 in
04:49 60.6 °F 58.9 °F 29.91 in West 3.0 mph 3.0 mph 94% 0.00 in
04:54 60.5 °F 58.8 °F 29.91 in WNW 2.0 mph 2.0 mph 94% 0.00 in
04:59 60.5 °F 58.8 °F 29.91 in West 3.0 mph 4.0 mph 94% 0.00 in
05:04 60.5 °F 58.8 °F 29.91 in WNW 2.0 mph 3.0 mph 94% 0.00 in
05:09 60.5 °F 58.8 °F 29.91 in West 2.0 mph 5.0 mph 94% 0.00 in
05:14 60.5 °F 58.8 °F 29.91 in WNW 3.0 mph 4.0 mph 94% 0.00 in
05:19 60.5 °F 58.8 °F 29.91 in WNW 3.0 mph 5.0 mph 94% 0.00 in
05:24 60.4 °F 58.7 °F 29.91 in WNW 3.0 mph 4.0 mph 94% 0.00 in
05:29 60.4 °F 58.7 °F 29.91 in WNW 3.0 mph 5.0 mph 94% 0.00 in
05:34 60.4 °F 58.7 °F 29.91 in WNW 5.0 mph 6.0 mph 94% 0.00 in
05:39 60.4 °F 58.7 °F 29.91 in West 4.0 mph 4.0 mph 94% 0.00 in
05:44 60.4 °F 58.7 °F 29.91 in WNW 4.0 mph 7.0 mph 94% 0.00 in
05:49 60.4 °F 58.7 °F 29.91 in NW 4.0 mph 6.0 mph 94% 0.00 in
05:54 60.4 °F 58.7 °F 29.91 in WNW 4.0 mph 5.0 mph 94% 0.00 in
05:55 60.4 °F 58.7 °F 29.91 in NW 3.0 mph 5.0 mph 94% 0.00 in
06:00 60.4 °F 58.7 °F 29.91 in WNW 2.0 mph 5.0 mph 94% 0.00 in
06:05 60.4 °F 58.7 °F 29.91 in WNW 2.0 mph 4.0 mph 94% 0.00 in
06:10 60.4 °F 58.7 °F 29.91 in NW 3.0 mph 5.0 mph 94% 0.00 in
06:15 60.4 °F 58.7 °F 29.92 in WNW 2.0 mph 4.0 mph 94% 0.00 in
06:20 60.4 °F 58.7 °F 29.92 in NW 2.0 mph 3.0 mph 94% 0.00 in
06:25 60.5 °F 58.8 °F 29.92 in WNW 1.0 mph 5.0 mph 94% 0.00 in
06:30 60.5 °F 58.8 °F 29.92 in WNW 1.0 mph 3.0 mph 94% 0.00 in
06:35 60.5 °F 58.8 °F 29.92 in NW 1.0 mph 4.0 mph 94% 0.00 in
06:37 60.5 °F 58.8 °F 29.92 in NW 3.0 mph 4.0 mph 94% 0.00 in
06:42 60.6 °F 58.9 °F 29.93 in WNW 2.0 mph 3.0 mph 94% 0.00 in
06:47 60.6 °F 58.9 °F 29.93 in West 1.0 mph 4.0 mph 94% 0.00 in
06:52 60.6 °F 58.9 °F 29.93 in NW 2.0 mph 4.0 mph 94% 0.00 in
06:57 60.7 °F 59.0 °F 29.93 in WNW 2.0 mph 5.0 mph 94% 0.00 in
07:02 60.6 °F 58.9 °F 29.93 in NW 4.0 mph 5.0 mph 94% 0.00 in
07:07 60.7 °F 59.0 °F 29.93 in WNW 3.0 mph 5.0 mph 94% 0.00 in
07:12 60.7 °F 59.0 °F 29.93 in NW 3.0 mph 4.0 mph 94% 0.00 in
07:17 60.7 °F 59.0 °F 29.93 in NW 5.0 mph 6.0 mph 94% 0.00 in
07:22 60.7 °F 59.0 °F 29.94 in West 2.0 mph 5.0 mph 94% 0.00 in
07:27 60.7 °F 59.0 °F 29.94 in NW 3.0 mph 5.0 mph 94% 0.00 in
07:33 60.7 °F 59.0 °F 29.94 in WNW 5.0 mph 8.0 mph 94% 0.00 in
07:38 60.7 °F 59.0 °F 29.94 in WNW 5.0 mph 7.0 mph 94% 0.00 in
07:43 60.7 °F 59.0 °F 29.94 in WNW 3.0 mph 7.0 mph 94% 0.00 in
07:48 60.8 °F 59.1 °F 29.94 in NW 2.0 mph 4.0 mph 94% 0.00 in
07:53 60.9 °F 59.2 °F 29.93 in NW 4.0 mph 4.0 mph 94% 0.00 in
07:58 60.9 °F 59.2 °F 29.93 in NW 5.0 mph 7.0 mph 94% 0.00 in
08:03 60.9 °F 59.2 °F 29.93 in NNW 5.0 mph 6.0 mph 94% 0.00 in
08:08 61.1 °F 59.4 °F 29.93 in NW 4.0 mph 5.0 mph 94% 0.00 in
08:13 61.1 °F 59.4 °F 29.93 in NW 8.0 mph 8.0 mph 94% 0.00 in
08:18 61.1 °F 59.4 °F 29.94 in NNW 3.0 mph 5.0 mph 94% 0.00 in
08:23 61.2 °F 59.5 °F 29.94 in NW 3.0 mph 9.0 mph 94% 0.00 in
08:29 61.2 °F 59.5 °F 29.94 in WNW 2.0 mph 6.0 mph 94% 0.00 in
08:34 61.3 °F 59.6 °F 29.94 in NNW 6.0 mph 7.0 mph 94% 0.00 in
08:39 61.4 °F 59.7 °F 29.94 in NW 4.0 mph 5.0 mph 94% 0.00 in
08:44 61.5 °F 59.8 °F 29.94 in WNW 5.0 mph 6.0 mph 94% 0.00 in
08:49 61.6 °F 59.9 °F 29.94 in NW 4.0 mph 6.0 mph 94% 0.00 in
08:54 61.6 °F 59.9 °F 29.94 in WNW 3.0 mph 9.0 mph 94% 0.00 in
08:59 61.8 °F 60.1 °F 29.94 in NNW 6.0 mph 6.0 mph 94% 0.00 in
09:04 62.0 °F 60.3 °F 29.94 in NW 5.0 mph 6.0 mph 94% 0.00 in
09:09 62.0 °F 60.3 °F 29.95 in NW 6.0 mph 10.0 mph 94% 0.00 in
09:10 62.0 °F 60.3 °F 29.95 in NW 6.0 mph 10.0 mph 94% 0.00 in
09:15 62.2 °F 60.5 °F 29.95 in West 3.0 mph 7.0 mph 94% 0.00 in
09:20 62.5 °F 60.8 °F 29.95 in WNW 4.0 mph 6.0 mph 94% 0.00 in
09:25 62.7 °F 61.0 °F 29.95 in NNW 5.0 mph 8.0 mph 94% 0.00 in
09:30 62.9 °F 61.2 °F 29.95 in NW 3.0 mph 9.0 mph 94% 0.00 in
09:35 63.0 °F 61.2 °F 29.95 in NNW 5.0 mph 6.0 mph 94% 0.00 in
09:40 63.1 °F 61.3 °F 29.95 in NW 1.0 mph 7.0 mph 94% 0.00 in
09:45 63.2 °F 61.5 °F 29.95 in NW 6.0 mph 9.0 mph 94% 0.00 in
09:50 63.3 °F 61.5 °F 29.95 in NW 3.0 mph 10.0 mph 94% 0.00 in
09:55 63.4 °F 61.7 °F 29.96 in NW 5.0 mph 7.0 mph 94% 0.00 in
10:00 63.6 °F 61.8 °F 29.96 in NW 5.0 mph 7.0 mph 94% 0.00 in
10:05 63.5 °F 61.8 °F 29.96 in NNW 5.0 mph 9.0 mph 94% 0.00 in
10:10 63.5 °F 61.8 °F 29.96 in NNW 4.0 mph 8.0 mph 94% 0.00 in
10:15 63.6 °F 61.8 °F 29.96 in North 7.0 mph 9.0 mph 94% 0.00 in
10:21 63.7 °F 61.6 °F 29.96 in NNW 4.0 mph 8.0 mph 93% 0.00 in
10:26 63.8 °F 61.7 °F 29.96 in NW 6.0 mph 6.0 mph 93% 0.00 in
10:31 63.9 °F 61.8 °F 29.96 in NNW 3.0 mph 8.0 mph 93% 0.00 in
10:36 64.0 °F 61.9 °F 29.96 in NNW 3.0 mph 6.0 mph 93% 0.00 in
10:41 64.1 °F 62.0 °F 29.96 in NNW 7.0 mph 8.0 mph 93% 0.00 in
10:46 64.3 °F 62.2 °F 29.96 in NNW 3.0 mph 6.0 mph 93% 0.00 in
10:51 64.4 °F 62.3 °F 29.95 in NNW 4.0 mph 8.0 mph 93% 0.00 in
10:56 64.9 °F 62.8 °F 29.95 in North 6.0 mph 7.0 mph 93% 0.00 in
11:01 65.2 °F 63.1 °F 29.95 in North 4.0 mph 8.0 mph 93% 0.00 in
11:06 65.7 °F 63.3 °F 29.95 in NNW 2.0 mph 8.0 mph 92% 0.00 in
11:11 65.9 °F 63.5 °F 29.96 in North 5.0 mph 10.0 mph 92% 0.00 in
11:16 66.1 °F 63.7 °F 29.96 in North 4.0 mph 8.0 mph 92% 0.00 in
11:21 66.3 °F 63.6 °F 29.96 in NNE 2.0 mph 7.0 mph 91% 0.00 in
11:26 66.5 °F 63.8 °F 29.96 in NW 4.0 mph 7.0 mph 91% 0.00 in
11:31 66.5 °F 63.8 °F 29.97 in NNE 2.0 mph 4.0 mph 91% 0.00 in
11:36 66.6 °F 63.9 °F 29.97 in NNE 2.0 mph 4.0 mph 91% 0.00 in
11:41 66.4 °F 63.4 °F 29.97 in North 2.0 mph 5.0 mph 90% 0.00 in
11:46 66.2 °F 63.5 °F 29.97 in NNW 4.0 mph 7.0 mph 91% 0.00 in
11:52 66.0 °F 63.6 °F 29.97 in NNW 4.0 mph 6.0 mph 92% 0.00 in
11:57 66.1 °F 63.7 °F 29.97 in NW 5.0 mph 6.0 mph 92% 0.00 in
12:02 66.2 °F 63.5 °F 29.98 in WNW 5.0 mph 9.0 mph 91% 0.00 in
12:07 66.4 °F 63.7 °F 29.97 in NNW 4.0 mph 7.0 mph 91% 0.00 in
12:12 66.7 °F 63.7 °F 29.97 in NNW 6.0 mph 8.0 mph 90% 0.00 in
12:17 67.2 °F 64.5 °F 29.98 in North 5.0 mph 7.0 mph 91% 0.00 in
12:22 67.5 °F 64.2 °F 29.98 in NNW 4.0 mph 7.0 mph 89% 0.00 in
12:27 67.5 °F 63.8 °F 29.98 in North 4.0 mph 6.0 mph 88% 0.00 in
12:32 67.4 °F 64.1 °F 29.98 in North 5.0 mph 7.0 mph 89% 0.00 in
12:37 67.3 °F 64.0 °F 29.98 in North 4.0 mph 6.0 mph 89% 0.00 in
12:42 67.7 °F 64.3 °F 29.98 in NNW 4.0 mph 5.0 mph 89% 0.00 in
12:47 68.1 °F 64.4 °F 29.98 in North 2.0 mph 5.0 mph 88% 0.00 in
12:52 68.5 °F 64.2 °F 29.98 in NE 6.0 mph 8.0 mph 86% 0.00 in
12:57 68.6 °F 63.9 °F 29.98 in NW 4.0 mph 6.0 mph 85% 0.00 in
13:02 69.2 °F 64.5 °F 29.98 in NNE 2.0 mph 7.0 mph 85% 0.00 in
13:07 69.5 °F 64.1 °F 29.98 in NNE 6.0 mph 9.0 mph 83% 0.00 in
13:12 69.3 °F 63.6 °F 29.98 in NE 4.0 mph 10.0 mph 82% 0.00 in
13:17 69.0 °F 64.0 °F 29.97 in NNE 4.0 mph 10.0 mph 84% 0.00 in
13:22 68.7 °F 64.3 °F 29.97 in ENE 6.0 mph 7.0 mph 86% 0.00 in
13:27 68.6 °F 63.9 °F 29.97 in NE 6.0 mph 9.0 mph 85% 0.00 in
13:32 68.7 °F 64.3 °F 29.97 in NW 2.0 mph 7.0 mph 86% 0.00 in
13:37 69.2 °F 64.8 °F 29.97 in NNW 6.0 mph 8.0 mph 86% 0.00 in
13:42 69.5 °F 64.8 °F 29.97 in North 6.0 mph 9.0 mph 85% 0.00 in
13:47 69.9 °F 64.5 °F 29.96 in NNE 4.0 mph 7.0 mph 83% 0.00 in
13:52 70.8 °F 64.7 °F 29.96 in NNW 3.0 mph 10.0 mph 81% 0.00 in
13:57 71.1 °F 65.3 °F 29.96 in NNW 5.0 mph 10.0 mph 82% 0.00 in
14:02 71.3 °F 64.5 °F 29.96 in NE 4.0 mph 7.0 mph 79% 0.00 in
14:07 71.4 °F 64.6 °F 29.96 in NW 8.0 mph 10.0 mph 79% 0.00 in
14:12 71.3 °F 64.5 °F 29.96 in North 7.0 mph 7.0 mph 79% 0.00 in
14:17 71.5 °F 65.0 °F 29.96 in ENE 6.0 mph 8.0 mph 80% 0.00 in
14:22 71.1 °F 65.0 °F 29.96 in NNE 6.0 mph 8.0 mph 81% 0.00 in
14:27 70.7 °F 63.9 °F 29.96 in ENE 7.0 mph 8.0 mph 79% 0.00 in
14:32 70.2 °F 63.8 °F 29.95 in NNE 4.0 mph 7.0 mph 80% 0.00 in
14:37 70.8 °F 64.7 °F 29.95 in NNW 1.0 mph 6.0 mph 81% 0.00 in
14:42 71.1 °F 65.0 °F 29.95 in NNW 3.0 mph 6.0 mph 81% 0.00 in
14:47 71.4 °F 64.2 °F 29.95 in North 1.0 mph 9.0 mph 78% 0.00 in
14:52 71.4 °F 64.6 °F 29.95 in North 2.0 mph 5.0 mph 79% 0.00 in
14:57 71.3 °F 64.5 °F 29.95 in NNE 5.0 mph 6.0 mph 79% 0.00 in
15:02 71.1 °F 65.0 °F 29.95 in North 5.0 mph 8.0 mph 81% 0.00 in
15:07 70.6 °F 64.1 °F 29.95 in NNW 6.0 mph 8.0 mph 80% 0.00 in
15:12 70.3 °F 64.6 °F 29.95 in NW 4.0 mph 7.0 mph 82% 0.00 in
15:17 70.2 °F 64.1 °F 29.95 in NNW 5.0 mph 5.0 mph 81% 0.00 in
15:23 70.4 °F 64.7 °F 29.94 in WNW 4.0 mph 8.0 mph 82% 0.00 in
15:28 70.5 °F 65.1 °F 29.94 in WNW 5.0 mph 7.0 mph 83% 0.00 in
15:33 70.7 °F 65.3 °F 29.94 in WNW 3.0 mph 5.0 mph 83% 0.00 in
15:38 71.0 °F 65.2 °F 29.94 in NW 6.0 mph 9.0 mph 82% 0.00 in
15:43 71.0 °F 65.6 °F 29.94 in NW 8.0 mph 9.0 mph 83% 0.00 in
15:49 72.1 °F 65.9 °F 29.94 in WNW 11.0 mph 11.0 mph 81% 0.00 in
15:54 72.0 °F 65.9 °F 29.93 in NNW 9.0 mph 11.0 mph 81% 0.00 in
15:59 71.6 °F 65.1 °F 29.93 in WNW 11.0 mph 15.0 mph 80% 0.00 in
16:04 71.8 °F 64.9 °F 29.93 in NW 12.0 mph 12.0 mph 79% 0.00 in
16:09 72.0 °F 64.8 °F 29.93 in NW 7.0 mph 11.0 mph 78% 0.00 in
16:14 72.1 °F 65.9 °F 29.93 in NW 9.0 mph 11.0 mph 81% 0.00 in
16:19 71.9 °F 65.0 °F 29.93 in NW 6.0 mph 12.0 mph 79% 0.00 in
16:24 71.9 °F 63.9 °F 29.93 in NW 8.0 mph 13.0 mph 76% 0.00 in
16:29 72.3 °F 65.1 °F 29.93 in North 10.0 mph 10.0 mph 78% 0.00 in
16:34 72.2 °F 65.3 °F 29.93 in WNW 10.0 mph 13.0 mph 79% 0.00 in
16:39 72.5 °F 65.3 °F 29.93 in WNW 5.0 mph 11.0 mph 78% 0.00 in
16:44 72.1 °F 65.6 °F 29.93 in NW 9.0 mph 9.0 mph 80% 0.00 in
16:49 71.6 °F 65.1 °F 29.93 in NW 8.0 mph 10.0 mph 80% 0.00 in
16:54 71.8 °F 65.3 °F 29.93 in NW 7.0 mph 10.0 mph 80% 0.00 in
16:59 72.0 °F 65.5 °F 29.92 in WNW 8.0 mph 10.0 mph 80% 0.00 in
17:04 72.1 °F 65.2 °F 29.92 in WNW 6.0 mph 10.0 mph 79% 0.00 in
17:09 72.0 °F 65.1 °F 29.92 in NW 6.0 mph 12.0 mph 79% 0.00 in
17:14 71.9 °F 65.4 °F 29.92 in NNW 8.0 mph 9.0 mph 80% 0.00 in
17:19 72.5 °F 64.9 °F 29.92 in North 7.0 mph 12.0 mph 77% 0.00 in
17:24 72.4 °F 64.8 °F 29.92 in NNW 10.0 mph 14.0 mph 77% 0.00 in
17:29 72.0 °F 64.4 °F 29.92 in North 6.0 mph 12.0 mph 77% 0.00 in
17:34 71.5 °F 64.3 °F 29.92 in NW 11.0 mph 16.0 mph 78% 0.00 in
17:39 70.6 °F 64.1 °F 29.92 in NNW 6.0 mph 12.0 mph 80% 0.00 in
17:45 70.2 °F 64.1 °F 29.92 in NW 7.0 mph 9.0 mph 81% 0.00 in
17:50 69.8 °F 63.7 °F 29.92 in NW 7.0 mph 10.0 mph 81% 0.00 in
17:55 69.7 °F 64.0 °F 29.92 in NNW 4.0 mph 7.0 mph 82% 0.00 in
18:00 69.8 °F 64.1 °F 29.92 in NW 3.0 mph 7.0 mph 82% 0.00 in
18:05 69.9 °F 64.2 °F 29.92 in NNW 4.0 mph 6.0 mph 82% 0.00 in
18:10 70.1 °F 64.4 °F 29.92 in NW 4.0 mph 8.0 mph 82% 0.00 in
18:15 70.6 °F 64.5 °F 29.92 in NW 7.0 mph 11.0 mph 81% 0.00 in
18:20 70.7 °F 64.9 °F 29.92 in West 7.0 mph 10.0 mph 82% 0.00 in
18:25 70.6 °F 63.8 °F 29.92 in NW 7.0 mph 10.0 mph 79% 0.00 in
18:30 70.3 °F 63.8 °F 29.92 in WNW 4.0 mph 9.0 mph 80% 0.00 in
18:35 70.1 °F 64.4 °F 29.92 in NNW 2.0 mph 5.0 mph 82% 0.00 in
18:40 69.9 °F 63.8 °F 29.93 in NW 7.0 mph 7.0 mph 81% 0.00 in
18:45 69.8 °F 64.1 °F 29.92 in NNW 5.0 mph 7.0 mph 82% 0.00 in
18:46 69.8 °F 64.1 °F 29.92 in WNW 4.0 mph 7.0 mph 82% 0.00 in
18:51 69.7 °F 64.3 °F 29.92 in WNW 3.0 mph 5.0 mph 83% 0.00 in
18:56 69.5 °F 64.1 °F 29.92 in NW 4.0 mph 6.0 mph 83% 0.00 in
19:01 69.2 °F 63.8 °F 29.93 in WNW 3.0 mph 8.0 mph 83% 0.00 in
19:06 69.0 °F 64.0 °F 29.93 in WNW 4.0 mph 5.0 mph 84% 0.00 in
19:11 69.0 °F 64.3 °F 29.92 in NNW 3.0 mph 5.0 mph 85% 0.00 in
19:16 69.0 °F 64.3 °F 29.92 in NW 6.0 mph 6.0 mph 85% 0.00 in
19:21 69.0 °F 64.3 °F 29.92 in WNW 4.0 mph 5.0 mph 85% 0.00 in
19:26 69.0 °F 64.0 °F 29.92 in NW 3.0 mph 7.0 mph 84% 0.00 in
19:32 69.0 °F 64.0 °F 29.92 in NNW 4.0 mph 7.0 mph 84% 0.00 in
19:37 68.8 °F 63.4 °F 29.92 in NW 6.0 mph 6.0 mph 83% 0.00 in
19:42 68.5 °F 62.5 °F 29.92 in NNW 4.0 mph 8.0 mph 81% 0.00 in
19:47 68.3 °F 62.6 °F 29.92 in NNW 6.0 mph 8.0 mph 82% 0.00 in
19:52 68.2 °F 62.8 °F 29.92 in NNW 4.0 mph 11.0 mph 83% 0.00 in
19:57 67.9 °F 62.5 °F 29.92 in NNW 4.0 mph 8.0 mph 83% 0.00 in
20:02 67.7 °F 62.7 °F 29.92 in NNW 5.0 mph 8.0 mph 84% 0.00 in
20:07 67.5 °F 62.5 °F 29.92 in NNW 4.0 mph 6.0 mph 84% 0.00 in
20:12 67.3 °F 62.6 °F 29.92 in NNW 5.0 mph 5.0 mph 85% 0.00 in
20:17 67.1 °F 62.8 °F 29.92 in NNW 3.0 mph 5.0 mph 86% 0.00 in
20:22 66.9 °F 62.6 °F 29.92 in NNW 2.0 mph 3.0 mph 86% 0.00 in
20:27 66.7 °F 62.7 °F 29.93 in North 2.0 mph 2.0 mph 87% 0.00 in
20:32 66.5 °F 62.5 °F 29.93 in NW 1.0 mph 2.0 mph 87% 0.00 in
20:37 66.3 °F 62.6 °F 29.93 in NW 2.0 mph 3.0 mph 88% 0.00 in
20:42 66.1 °F 62.5 °F 29.93 in NW 1.0 mph 2.0 mph 88% 0.00 in
20:47 66.0 °F 62.3 °F 29.93 in NW 2.0 mph 3.0 mph 88% 0.00 in
20:52 65.8 °F 62.5 °F 29.93 in NNW 2.0 mph 2.0 mph 89% 0.00 in
20:57 65.6 °F 62.3 °F 29.93 in NW 3.0 mph 4.0 mph 89% 0.00 in
21:02 65.5 °F 62.2 °F 29.93 in NNW 2.0 mph 5.0 mph 89% 0.00 in
21:07 65.4 °F 62.1 °F 29.93 in NNW 3.0 mph 3.0 mph 89% 0.00 in
21:13 65.1 °F 62.1 °F 29.93 in NNW 3.0 mph 3.0 mph 90% 0.00 in
21:18 65.0 °F 62.0 °F 29.93 in NW 3.0 mph 4.0 mph 90% 0.00 in
21:23 64.8 °F 61.8 °F 29.93 in NW 3.0 mph 3.0 mph 90% 0.00 in
21:28 64.7 °F 62.0 °F 29.94 in NW 3.0 mph 3.0 mph 91% 0.00 in
21:33 64.6 °F 61.9 °F 29.94 in NW 2.0 mph 2.0 mph 91% 0.00 in
21:38 64.5 °F 61.8 °F 29.94 in NW 2.0 mph 2.0 mph 91% 0.00 in
21:43 64.4 °F 61.7 °F 29.94 in NW 1.0 mph 1.0 mph 91% 0.00 in
21:48 64.3 °F 61.6 °F 29.94 in NW 1.0 mph 1.0 mph 91% 0.00 in
21:53 64.1 °F 61.7 °F 29.95 in Calm   1.0 mph 92% 0.00 in
21:58 64.0 °F 61.6 °F 29.95 in NW 1.0 mph 1.0 mph 92% 0.00 in
22:03 63.9 °F 61.5 °F 29.95 in NNW 1.0 mph 2.0 mph 92% 0.00 in
22:08 63.8 °F 61.4 °F 29.95 in NNW 1.0 mph 1.0 mph 92% 0.00 in
22:13 63.8 °F 61.4 °F 29.96 in NNW 1.0 mph 1.0 mph 92% 0.00 in
22:18 63.6 °F 61.2 °F 29.95 in NW 1.0 mph 2.0 mph 92% 0.00 in
22:23 63.4 °F 61.3 °F 29.95 in NNW 1.0 mph 2.0 mph 93% 0.00 in
22:28 63.2 °F 61.2 °F 29.95 in NNW 1.0 mph 3.0 mph 93% 0.00 in
22:33 63.1 °F 61.0 °F 29.96 in NNW 2.0 mph 2.0 mph 93% 0.00 in
22:38 63.0 °F 61.0 °F 29.96 in NNW 2.0 mph 3.0 mph 93% 0.00 in
22:43 63.0 °F 61.0 °F 29.96 in North 2.0 mph 2.0 mph 93% 0.00 in
22:48 63.0 °F 61.0 °F 29.96 in North 2.0 mph 2.0 mph 93% 0.00 in
22:53 63.0 °F 61.0 °F 29.96 in North 1.0 mph 2.0 mph 93% 0.00 in
22:58 62.9 °F 60.8 °F 29.96 in Calm   2.0 mph 93% 0.00 in
23:03 62.9 °F 60.8 °F 29.96 in Calm   1.0 mph 93% 0.00 in
23:08 62.8 °F 60.8 °F 29.96 in Calm   3.0 mph 93% 0.00 in
23:13 62.7 °F 60.7 °F 29.97 in Calm   1.0 mph 93% 0.00 in
23:18 62.6 °F 60.5 °F 29.97 in North 1.0 mph 2.0 mph 93% 0.00 in
23:23 62.6 °F 60.5 °F 29.97 in NNE 1.0 mph 1.0 mph 93% 0.00 in
23:28 62.6 °F 60.5 °F 29.97 in NNW 1.0 mph 1.0 mph 93% 0.00 in
23:33 62.6 °F 60.5 °F 29.97 in North 1.0 mph 1.0 mph 93% 0.00 in
23:38 62.7 °F 60.7 °F 29.97 in Calm   2.0 mph 93% 0.00 in
23:43 62.7 °F 60.7 °F 29.97 in North 1.0 mph 2.0 mph 93% 0.00 in
23:48 62.6 °F 60.5 °F 29.97 in North 1.0 mph 2.0 mph 93% 0.00 in
23:53 62.5 °F 60.5 °F 29.97 in Calm   1.0 mph 93% 0.00 in
23:58 62.4 °F 60.3 °F 29.97 in Calm   1.0 mph 93% 0.00 in
Compliments of Weather Underground